Regional Weather Roundup
Issued by NWS Sioux Falls, SD

Home | Current Version | Previous Version | Text Only | Print | Product List | Glossary On
Versions: 1 2 3 4 5 6 7 8 9 10 11 12 13 14 15 16 17 18 19 20 21 22 23 24 25 26 27 28 29 30 31 32 33 34 35 36 37 38 39 40 41 42 43 44 45 46 47 48 49 50
000
ASUS43 KFSD 050002
RWRFSD

WEATHER ROUNDUP FOR SE SOUTH DAKOTA/SW MINNESOTA/NW IOWA
NATIONAL WEATHER SERVICE SIOUX FALLS SD
600 PM CST WED MAR 04 2015

NOTE: "FAIR" INDICATES FEW OR NO CLOUDS BELOW 12,000 FEET WITH NO
SIGNIFICANT WEATHER AND OR OBSTRUCTIONS TO VISIBILITY.


SDZ038>040-050-052>070-050100-
SOUTHEAST SOUTH DAKOTA

CITY           SKY/WX    TMP DP  RH WIND       PRES   REMARKS
CHAMBERLAIN    NOT AVBL
HURON          CLEAR      6  -6  57 N13       30.38R WCI -10
6HR MIN TEMP:   6; 6HR MAX TEMP:   9; 6HR PCP: TRACE;

MADISON        FAIR       1  -4  78 NW12      30.32S WCI -15
MITCHELL       CLEAR      9  -4  55 N12       30.39R WCI  -6
6HR MIN TEMP:   9; 6HR MAX TEMP:  14; 6HR PCP: TRACE;

SIOUX FALLS    PTCLDY     5  -6  60 NW14      30.35R WCI -12
6HR MIN TEMP:   5; 6HR MAX TEMP:  12; 6HR PCP: TRACE;

WINNER         FAIR      13  -3  49 N10       30.31R WCI   0
YANKTON        CLEAR     10  -2  56 N14       30.38R WCI  -5
$$

MNZ071-072-080-081-089-090-097-098-050100-
SOUTHWEST MINNESOTA

CITY           SKY/WX    TMP DP  RH WIND       PRES   REMARKS
FAIRMONT       PTCLDY     7  -2  66 NW17G24   30.29R WCI -12
JACKSON        MOCLDY     9  -4  56 NW22G29   30.29R WCI -11
LUVERNE        CLEAR      7  -6  56 NW14      30.35R WCI -10
MARSHALL       MOCLDY     3  -6  66 N20G29    30.36R WCI -18
6HR MIN TEMP:   3; 6HR MAX TEMP:   9;

MONTEVIDEO     MOCLDY     1  -6  71 N14       30.37R WCI -17
PIPESTONE      CLEAR      3  -8  60 NW15      30.30R WCI -15
REDWOOD FALLS  CLOUDY     4  -5  66 NW14G21   30.35R WCI -14
TRACY          PTCLDY     4  -5  64 NW17G23   30.33S WCI -15
WINDOM         CLEAR      3  -6  66 NW21      30.30R WCI -18
WORTHINGTON    PTCLDY     3  -8  60 NW20      30.32R WCI -18
$$

IAZ001>003-012>014-020>022-031-032-NEZ013-014-SDZ071-050100-
NORTHWEST IOWA

CITY           SKY/WX    TMP DP  RH WIND       PRES   REMARKS
DENISON        CLEAR     14  -4  44 N14G21    30.31R WCI  -1
ESTHERVILLE    CLOUDY     7   0  73 N20       30.29R WCI -13
SIOUX CITY     PTCLDY    16  -3  43 N18       30.35R WCI   0
6HR MIN TEMP:  16; 6HR MAX TEMP:  24; 6HR PCP: TRACE;

SPENCER        PTCLDY     9  -4  55 NW18      30.31R WCI -10
6HR MIN TEMP:   9; 6HR MAX TEMP:  21; 6HR PCP: TRACE;

$$

ABBREVIATIONS USED IN REMARKS
   TC - TEMPERATURE IN CELSIUS
  WCI - WIND CHILL INDEX
   HX - HEAT INDEX
  VSB - VISIBILITY




USA.gov is the U.S. government's official web portal to all federal, state and local government web resources and services.